Regional Weather Roundup
Issued by NWS

Home | Current Version | Previous Version | Text Only | Print | Product List | Glossary Off
Versions: 1 2 3 4 5 6 7 8 9 10 11 12 13 14 15 16 17 18 19 20 21 22 23 24 25 26 27 28 29 30 31 32 33 34 35 36 37 38 39 40 41 42 43 44 45 46 47 48 49 50

000
ASUS43 KMPX 291401
RWRMN
WEATHER ROUNDUP FOR MINNESOTA
NATIONAL WEATHER SERVICE TWIN CITIES/CHANHASSEN MN
900 AM CDT SUN MAY 29 2016


NOTE: "FAIR" INDICATES FEW OR NO CLOUDS BELOW 12,000 FEET WITH NO
SIGNIFICANT WEATHER AND/OR OBSTRUCTIONS TO VISIBILITY. N/A MEANS
CURRENT SKY AND/OR WEATHER CONDITIONS ARE NOT AVAILABLE.

MNZ060>063-068>070-291500-
   Twin Cities Metro

CITY           SKY/WX    TMP DP  RH WIND       PRES   REMARKS
TWIN CITIES    CLOUDY    65  58  78 W14       29.92R
ST PAUL        CLOUDY    65  59  81 W13       29.91R
CRYSTAL        CLOUDY    65  57  75 W9        29.90R
BLAINE         CLOUDY    66  63  88 W12       29.91R
EDEN PRAIRIE   PTSUNNY   66  58  75 W10G20    29.92R
SOUTH ST PAUL  PTSUNNY   65  60  83 W15       29.92R
LAKE ELMO      CLOUDY    63  61  94 W8        29.92R
$$
MNZ001>005-007-008-013>017-022>024-027-028-291500-
   Northwest Minnesota

CITY           SKY/WX    TMP DP  RH WIND       PRES   REMARKS
BEMIDJI        CLOUDY    57  55  92 NW14      29.89R
HALLOCK        CLOUDY    61  55  82 NW10      29.91S
ROSEAU         CLOUDY    55  52  88 NW9       29.89R
WARROAD        CLOUDY    55  52  88 NW7       29.88S
THIEF RVR FALL CLOUDY    57  52  82 NW14      29.92S
CROOKSTON      CLOUDY    61  57  88 NW10      29.93R
FOSSTON        CLOUDY    57  55  94 W10       29.92R
DETROIT LAKES  CLOUDY    59  57  94 NW9       29.94R
MOORHEAD       PTSUNNY   61  57  88 NW8       29.94R
PARK RAPIDS    CLOUDY    61  56  83 W12       29.90S
MAHNOMEN       CLOUDY    58  57  97 W9        29.91S
$$
MNZ006-009>011-018-025>026-291500-
   North Central Minnesota

CITY           SKY/WX    TMP DP  RH WIND       PRES   REMARKS
BAUDETTE       LGT RAIN  56  53  90 NW10      29.86R
FLAG ISLAND    LGT RAIN  54  52  94 NW13      29.84F
INTL FALLS     CLOUDY    57  54  89 NW10      29.82R FOG
WASKISH        LGT RAIN  55  55 100 W12       29.87R
BIG FORK       CLOUDY    57  54  88 NW3       29.85S
LONGVILLE      CLOUDY    57  55  94 W8        29.89R
GRAND RAPIDS   CLOUDY    58  54  86 W8        29.87R
CRANE LAKE     RAIN      55  55 100 W3        29.81R
ORR            CLOUDY    55  54  94 NW10      29.80R
COOK           CLOUDY    57  55  94 W8        29.82S
WALKER         CLOUDY    56  55  94 W7        29.89R
$$
MNZ012-019>021-037-291500-
   Northeast Minnesota

CITY           SKY/WX    TMP DP  RH WIND       PRES   REMARKS
DULUTH         CLOUDY    61  58  90 W10       29.82R FOG
ELY            DRIZZLE   59  57  94 W3        29.79R
HIBBING        CLOUDY    56  54  93 NW12G18   29.83R
EVELETH        CLOUDY    57  55  94 W9        29.83R
DULUTH HARBOR  CLOUDY    61  59  94 SW8       29.82R
TWO HARBORS    CLOUDY    61  55  82 CALM      29.78S
SILVER BAY     CLOUDY    61  59  94 CALM      29.77S
GRAND MARAIS     N/A     43  42  97 W6        29.78R
G MARAIS ARPRT CLOUDY    57  55  94 CALM      29.78S FOG
$$
MNZ029>031-032-039>041-046>048-054>057-064-291500-
   West Central Minnesota

CITY           SKY/WX    TMP DP  RH WIND       PRES   REMARKS
FERGUS FALLS   MOSUNNY   63  61  94 NW12      29.92R
WHEATON        SUNNY     66  61  82 W7        29.97S
MORRIS         PTSUNNY   63  59  88 NW9       29.95R
ALEXANDRIA     PTSUNNY   62  57  83 NW10      29.95R
ELBOW LAKE     CLOUDY    61  59  92 NW7       29.96R
WADENA         CLOUDY    59  57  94 NW8       29.92R
GLENWOOD       MOSUNNY   63  57  82 W14       29.95R
APPLETON       SUNNY     66  57  72 NW9       29.95R
BENSON         PTSUNNY   63  57  82 N8        29.96
ORTONVILLE     SUNNY     64  57  77 W7        29.96R
MADISON        SUNNY     66  57  72 W9        29.97R
WILLMAR        PTSUNNY   63  61  94 NW8       29.98R
$$
MNZ033>034-036-042>043-049>051-058-059-291500-
   Central Minnesota

CITY           SKY/WX    TMP DP  RH WIND       PRES   REMARKS
ST CLOUD       CLOUDY    63  59  87 W13       29.92R
SAUK CENTRE    CLOUDY    63  57  82 NW16      29.94R
PAYNESVILLE    SUNNY     63  60  87 NW9       29.95R
AITKIN         CLOUDY    63  54  72 NW5       29.87R
PINE RIVER     CLOUDY    59  55  88 W8G16     29.93R
BRAINERD       CLOUDY    60  56  86 NW12      29.90R
STAPLES        PTSUNNY   61  55  82 NW12      29.91S
LONG PRAIRIE   CLOUDY    61  55  82 W9        29.94R
LITTLE FALLS   PTSUNNY   61  54  77 W12       29.92R
LITCHFIELD     SUNNY     66  61  82 W9G16     29.95R
BUFFALO        PTSUNNY   64  57  80 W12       29.94R
MAPLE LAKE     MOSUNNY   64  60  88 W8        29.93R
HUTCHINSON     MOSUNNY   65  61  87 W12       29.96R
$$
MNZ037-044-045-052-053-291500-
   East Central Minnesota

CITY           SKY/WX    TMP DP  RH WIND       PRES   REMARKS
PRINCETON      PTSUNNY   64  61  88 W8G18     29.91R
MORA           CLOUDY    61  55  82 NW8       29.90R
CAMBRIDGE      CLOUDY    64  55  72 W10G18    29.88R
RUSH CITY      CLOUDY    63  58  86 W7        29.88R
MOOSE LAKE     CLOUDY    61  57  88 NW6       29.84R
HINCKLEY       CLOUDY    63  59  88 W6        29.86S
CLOQUET        CLOUDY    61  57  88 W12       29.84R
MCGREGOR       CLOUDY    61  55  82 NW8G17    29.87R
$$
MNZ071>073-080-081-089-090-097-098-291500-
   Southwest Minnesota

CITY           SKY/WX    TMP DP  RH WIND       PRES   REMARKS
MONTEVIDEO     SUNNY     68  61  77 NW8       29.98R
GRANITE FALLS  SUNNY     67  60  76 W14       29.98R
CANBY          SUNNY     70  61  73 W13G18    29.98S
MARSHALL       SUNNY     67  59  75 W16       29.98R
REDWOOD FALLS  SUNNY     67  57  70 W15G22    29.96R
OLIVIA         MOSUNNY   64  59  82 W10       29.96R
PIPESTONE      SUNNY     64  57  77 NW12      30.02R
WINDOM         SUNNY     66  59  77 W7G17     30.00R
WORTHINGTON    SUNNY     65  60  84 W16       30.03R
JACKSON        SUNNY     66  57  72 W12G18    30.02R
TRACY          SUNNY     67  61  79 W10G16    29.99R
SLAYTON        SUNNY     65  59  82 W14       30.02R
$$
MNZ065>067-074>077-082>085-091>093-291500-
   South Central Minnesota

CITY           SKY/WX    TMP DP  RH WIND       PRES   REMARKS
MANKATO        SUNNY     64  57  77 W15       29.97R
NEW ULM        SUNNY     66  61  82 W13       29.96R
ST JAMES       SUNNY     63  55  77 W10       29.99R
FAIRMONT       MOSUNNY   66  57  72 W17       30.00R
GLENCOE        MOSUNNY   65  61  86 W13       29.95R
FARIBAULT      SUNNY     64  61  88 W10       29.95R
OWATONNA       SUNNY     64  59  82 W13       29.96R
WASECA         SUNNY     63  59  88 W14       29.99R
ALBERT LEA     MOSUNNY   64  61  88 W5        29.99R
$$
MNZ078>079-086>088-094>096-291500-
   Southeast Minnesota

CITY           SKY/WX    TMP DP  RH WIND       PRES   REMARKS
ROCHESTER      PTSUNNY   64  60  87 W14       29.97R
RED WING       CLOUDY    64  61  88 W8        29.91R
STANTON        CLOUDY    65  59  80 W13       29.93R
DODGE CENTER   SUNNY     64  61  88 W12G18    29.96R
WINONA         CLOUDY    70  61  73 W5        29.93R
AUSTIN         MOSUNNY   64  59  82 W9        29.98R
PRESTON        MOSUNNY   65  58  78 NW15      29.97R
$$
ABBREVIATIONS USED IN REMARKS
   TC - TEMPERATURES IN CELSIUS
  WCI - WIND CHILL INDEX
   HX - HEAT INDEX
  VSB - VISIBILITY
$$




USA.gov is the U.S. government's official web portal to all federal, state and local government web resources and services.